Vorticity
nan nan nan nan nan nan nan nan nan nan nan nan nan nan nan nan nan nan nan nan nan nan nan nan nan nan nan nan nan nan nan nan nan nan nan nan nan nan nan nan nan nan nan
nan 16 7 9 10 9 9 10 11 8 12 9 6 8 10 8 10 6 6 11 11 8 9 9 8 10 9 9 8 8 9 8 7 9 8 10 10 10 10 11 10 10 nan
nan 7 7 11 14 9 9 11 10 11 10 9 7 7 8 6 7 6 6 9 13 13 11 9 10 9 8 9 9 9 9 11 9 10 9 9 10 10 10 10 10 9 nan
nan 9 11 12 12 11 10 10 9 11 10 10 9 9 8 11 7 7 6 10 9 8 9 10 12 9 8 6 10 9 10 9 9 9 10 10 10 9 10 9 9 11 nan
nan 9 10 14 13 12 11 11 11 11 8 9 9 10 9 10 8 7 7 10 8 9 11 11 12 11 12 8 7 7 10 10 9 10 9 10 9 10 10 9 10 10 nan
nan 13 16 17 12 10 11 12 11 9 9 10 9 9 8 10 10 7 7 9 9 9 9 11 11 12 12 13 11 10 7 4 9 9 9 9 9 9 10 9 9 8 nan
nan 10 11 11 12 12 12 11 10 9 10 9 10 10 9 9 9 9 10 11 11 10 10 8 9 11 10 11 12 18 16 9 6 8 9 9 10 11 8 10 9 9 nan
nan 13 12 12 13 13 13 10 11 11 10 9 10 9 9 10 12 11 13 9 9 10 11 10 8 8 9 9 9 15 15 16 10 7 8 8 9 10 9 11 10 7 nan
nan 10 10 11 12 11 11 12 11 12 12 11 9 10 9 12 12 9 10 9 9 10 11 12 9 9 11 10 7 10 10 12 16 14 11 7 8 7 5 7 10 9 nan
nan 9 8 8 8 8 9 13 13 11 10 11 11 11 8 10 12 13 8 7 8 10 11 13 13 6 5 12 13 9 10 11 9 11 11 15 16 15 9 4 7 8 nan
nan 8 8 8 9 8 8 9 9 9 10 11 12 11 13 12 9 13 7 4 7 9 7 10 18 13 9 11 8 7 10 8 11 11 10 12 11 13 13 12 10 7 nan
nan 6 7 8 8 9 10 9 8 9 11 12 11 12 12 14 14 11 11 5 2 7 7 11 15 15 8 7 10 5 6 12 14 13 11 9 10 11 13 11 12 8 nan
nan 7 10 11 9 9 9 8 9 11 11 10 10 10 10 12 15 15 14 13 10 9 9 12 15 15 9 9 10 11 12 9 7 7 9 13 14 10 10 12 12 13 nan
nan 9 9 9 9 11 11 11 10 10 11 10 9 10 10 9 10 14 14 15 16 11 12 15 16 15 12 8 11 12 10 10 9 9 9 9 9 11 10 12 12 12 nan
nan 11 12 12 11 12 12 10 9 9 5 5 7 7 7 8 8 6 4 6 11 14 14 12 12 12 11 12 12 11 10 10 9 9 9 8 9 9 11 12 12 12 nan
nan 11 12 10 12 11 9 13 14 9 6 7 5 2 6 5 4 7 8 9 11 14 12 10 10 11 10 11 11 11 12 10 11 10 10 10 11 10 11 11 11 11 nan
nan 8 12 11 11 10 11 10 11 17 16 11 11 12 11 6 8 11 10 19 19 12 9 10 11 11 10 10 12 11 10 12 10 11 11 11 10 10 11 11 11 11 nan
nan 12 10 11 10 10 10 10 10 9 12 17 20 16 12 12 12 13 15 12 10 10 10 12 11 11 11 11 10 11 10 10 10 11 10 11 10 12 10 12 12 10 nan
nan 11 10 11 10 9 9 10 10 10 10 9 12 16 16 16 14 19 17 5 10 10 11 11 11 12 12 12 11 11 12 10 11 11 11 11 11 11 11 13 14 11 nan
nan 11 8 9 9 10 11 11 11 12 12 12 11 9 9 15 14 13 8 11 11 10 11 11 11 12 11 11 11 11 11 11 11 10 10 10 12 11 12 12 12 11 nan
nan 10 11 12 11 10 10 11 11 12 11 11 11 14 12 9 8 10 10 11 11 11 11 11 11 11 12 11 11 11 10 9 10 10 11 12 12 10 12 12 12 11 nan
nan 10 12 10 10 10 11 11 13 13 12 11 10 9 14 17 15 11 12 11 12 11 11 12 12 11 12 13 12 11 11 11 11 12 11 11 10 12 13 12 12 13 nan
nan 9 11 11 9 11 13 12 12 11 11 11 12 13 14 12 12 16 15 11 11 11 13 12 11 11 12 12 12 12 11 11 12 11 10 12 11 12 13 14 12 13 nan
nan 10 10 12 12 13 12 12 12 13 13 13 13 13 13 12 11 11 12 15 14 14 14 13 13 11 11 10 10 10 9 10 12 15 15 13 15 15 15 15 15 13 nan
nan 12 13 13 12 11 12 13 14 16 16 14 16 16 14 14 14 12 11 10 16 16 13 11 12 13 12 13 14 14 14 14 17 17 18 19 18 16 13 16 18 15 nan
nan nan nan nan nan nan nan nan nan nan nan nan nan nan nan nan nan nan nan nan nan nan nan nan nan nan nan nan nan nan nan nan nan nan nan nan nan nan nan nan nan nan nan
CAPE
0 0 67 1313 911 772 886 991 1428 1444 619 0 7 90 10 0 0 0 49 275 887 1023 901 926 913 786 778 683 631 476 432 295 471 358 349 531 462 491 669 629 434 365 314
0 17 130 1256 1997 1517 1290 1162 1072 1162 1117 109 69 48 0 0 0 75 277 497 1148 1321 1283 1064 966 822 782 859 777 812 651 407 687 785 424 557 651 593 535 545 558 429 192
0 0 0 584 2321 2190 2100 1989 2046 1858 1445 529 178 226 7 0 10 120 217 469 462 1154 1409 1239 1038 934 989 829 763 901 842 660 618 740 795 507 719 676 642 348 275 390 239
0 130 310 1518 2545 2511 2486 2486 2486 2303 1835 1143 627 379 119 41 7 89 192 323 389 661 1020 1251 1306 1020 1188 1161 838 834 918 797 665 677 721 697 673 760 761 782 567 285 326
58 68 394 1216 2252 2422 2476 2399 2475 2035 1283 897 745 335 47 111 57 37 81 157 154 220 293 313 482 818 1342 1329 1173 848 988 730 788 859 910 879 892 776 963 794 840 539 429
1622 1797 1933 1604 1776 2018 2266 2040 1932 1615 1014 289 154 314 144 18 11 0 129 152 176 148 79 104 212 425 670 718 538 594 919 911 1071 1024 1125 1272 1152 888 698 762 753 734 854
1582 2194 2676 2474 2049 1779 1697 1567 1281 1061 1105 805 320 129 98 84 103 169 248 81 0 0 18 95 128 251 240 328 276 453 201 713 1402 1243 1331 1257 1225 881 832 818 776 777 804
1824 2005 2013 2264 2460 1686 1697 1782 2041 1482 1316 1170 1137 949 775 576 375 116 0 0 0 0 0 7 0 4 18 186 354 796 879 676 536 655 1307 1460 1217 1083 945 969 842 706 641
478 460 593 654 929 1330 1279 1260 939 882 898 633 285 92 0 2 2 0 0 0 0 0 0 0 0 0 64 80 367 804 561 533 793 714 890 1189 1215 1074 1016 820 965 989 828
170 99 52 27 105 190 294 605 1131 1107 1166 837 660 297 81 0 0 0 0 0 0 0 0 0 0 3 34 505 236 235 281 92 11 512 363 108 171 216 504 1074 1018 1259 839
57 11 0 0 5 153 53 16 56 74 181 507 762 767 531 71 0 0 0 0 0 0 0 3 24 26 24 112 581 521 289 73 0 0 0 0 0 155 275 190 703 1140 679
0 0 0 0 0 34 0 0 0 0 0 0 126 593 1003 697 55 0 0 0 0 0 6 472 96 85 156 870 198 443 476 0 0 0 0 0 0 0 2 195 229 558 720
0 0 0 0 0 0 0 0 0 0 0 0 0 0 29 330 1136 1480 887 0 0 0 110 721 207 113 9 16 7 4 1 1 0 21 75 55 3 0 4 375 638 498 398
0 0 0 0 0 0 0 0 0 0 0 0 0 0 0 0 17 304 548 474 106 1 0 0 0 0 0 0 0 4 1 148 120 214 334 441 451 297 526 504 465 316 406
0 0 0 0 0 0 0 0 0 0 0 0 0 0 0 0 0 0 15 93 238 202 1 0 1 1 44 37 38 83 51 28 90 216 186 397 484 661 752 735 410 138 381
0 0 0 0 0 0 0 0 0 0 0 0 0 0 0 0 0 0 0 0 0 0 0 0 0 32 198 317 236 258 36 65 126 211 207 312 484 536 594 285 116 106 161
0 0 0 0 0 0 0 0 0 0 0 0 0 0 0 0 0 0 0 0 0 0 0 0 0 30 149 276 284 173 124 46 59 250 339 324 337 382 487 420 205 109 43
0 0 0 0 0 0 0 0 0 0 0 0 0 0 0 0 0 0 0 0 0 0 0 0 1 111 286 377 418 345 229 106 43 87 154 303 374 410 271 215 125 102 16
0 0 0 0 0 0 0 0 0 0 0 0 0 0 0 0 0 0 1 0 0 0 0 0 0 10 12 123 294 282 344 242 238 145 223 293 320 272 344 252 92 49 0
0 0 0 0 0 0 0 0 0 0 0 0 0 0 0 0 0 0 0 0 0 0 0 0 0 0 11 6 58 230 321 343 292 222 267 269 281 256 326 138 73 1 0
0 0 0 0 0 0 0 0 0 2 7 11 16 18 11 3 0 0 0 0 0 0 0 0 0 0 0 2 66 158 225 267 325 302 282 315 411 316 334 193 133 57 0
0 0 0 0 0 0 2 2 4 8 6 6 6 3 0 0 2 1 0 0 0 0 0 0 0 0 8 0 5 62 165 246 263 307 395 443 573 552 431 131 1 0 0
0 0 0 0 1 4 4 5 6 7 8 10 8 9 10 16 10 19 5 1 0 0 0 0 0 0 0 0 9 142 288 368 451 525 601 664 517 577 302 23 0 0 0
0 0 3 2 4 6 5 5 6 2 3 5 5 10 16 18 15 21 16 29 6 0 0 0 0 0 0 0 0 6 172 583 679 671 638 407 302 105 14 0 0 0 0
0 3 5 5 7 6 6 6 9 10 3 3 13 10 14 26 20 11 0 0 6 0 0 1 0 0 0 0 0 0 0 2 24 423 16 0 0 0 0 0 0 0 0
4 6 8 7 6 7 8 7 7 8 10 4 7 9 10 13 15 9 1 13 0 0 0 0 0 0 0 0 0 0 1 2 1 0 0 0 0 0 0 0 0 0 0